Regional Weather Roundup
Issued by NWS

Home | Current Version | Previous Version | Graphics & Text | Print | Product List | Glossary On
Versions: 1 2 3 4 5 6 7 8 9 10 11 12 13 14 15 16 17 18 19 20 21 22 23 24 25 26 27 28 29 30 31 32 33 34 35 36 37 38 39 40 41 42 43 44 45 46 47 48 49
000
ASUS45 KBOU 221207
RWRCO

WEATHER ROUNDUP FOR COLORADO
NATIONAL WEATHER SERVICE DENVER/BOULDER CO
600 AM MDT MON SEP 22 2014

NOTE: "FAIR" INDICATES FEW OR NO CLOUDS BELOW 12000 FEET WITH NO
SIGNIFICANT WEATHER AND/OR OBSTRUCTIONS TO VISIBILITY.

COZ001>005-013-030-031-221300-
...NORTHWEST COLORADO...

CITY           SKY/WX    TMP DP  RH WIND       PRES   REMARKS
CRAIG          PTCLDY    50  48  93 CALM      30.27R
HAYDEN         MOCLDY    54  48  82 E7        30.27S
MEEKER         MOCLDY    50  48  93 CALM      30.27R
MOUNT WERNER   NOT AVBL
STEAMBOAT SPGS MOCLDY    51  49  94 CALM      30.28F
WALDEN         CLOUDY    46  43  87 S6        30.37R
$$

COZ006>008-011-221300-
...WEST CENTRAL VALLEYS...

CITY           SKY/WX    TMP DP  RH WIND       PRES   REMARKS
GRAND JUNCTION MOCLDY    60  56  86 E10       30.20R
MONTROSE       MOCLDY    59  58  96 NW5       30.29R
EAGLE          CLOUDY    54  54 100 E5        30.34F
RIFLE          PTCLDY    57  55  93 W3        30.24S
DELTA          RAIN      62  58  88 NE8       30.24S
NUCLA          MOCLDY    55  54  94 CALM      30.31R
$$

COZ017>023-064>068-221300-
...SOUTHWEST COLORADO...

CITY           SKY/WX    TMP DP  RH WIND       PRES   REMARKS
DURANGO        LGT RAIN  58  57  97 NE5       30.34F
CORTEZ         MOCLDY    58  57  97 CALM      30.28S
PAGOSA SPRINGS LGT RAIN  57  55  91 CALM      30.41R
TELLURIDE      NOT AVBL
WOLF CREEK PAS RAIN      41  41 100 S8G23     30.61F VSB<1/4
$$

COZ009-010-012-014-032>034-037-058>063-221300-
...CENTRAL COLORADO...

CITY           SKY/WX    TMP DP  RH WIND       PRES   REMARKS
ASPEN          CLOUDY    52  50  93 CALM      30.37F
BUENA VISTA    RAIN      51  50  93 CALM      30.39F
COPPER MTN     DRIZZLE   45  37  76 S20       30.61S
BERTHOUD PASS  RAIN      36  34  93 W14       30.64R VSB 1/4
COTTONWOOD PAS RAIN      50  46  87 CALM      30.48F VSB 1/4
GUNNISON       CLOUDY    54  48  82 CALM      30.42R
KREMMLING      RAIN      52  48  87 CALM      30.39R
LEADVILLE      CLOUDY    46  45  96 CALM      30.47F
MONARCH PASS   FOG       41  41 100 S15       30.70F VSB<1/4
SALIDA         CLOUDY    54  51  89 CALM      30.44F
SUNLIGHT       MOCLDY    45  45 100 CALM      30.53F
WILKERSON PASS NOT AVBL
$$

COZ069>075-221300-
...SAN LUIS VALLEY/SANGRE DE CRISTO MOUNTAINS...

CITY           SKY/WX    TMP DP  RH WIND       PRES   REMARKS
ALAMOSA        MOCLDY    57  49  74 S13       30.38R
LA VETA PASS   PTCLDY    45  43  93 S9        30.52S
SAGUACHE       NOT AVBL
$$

COZ035-036-038>040-221300-
...NORTHERN COLORADO FRONT RANGE...

CITY           SKY/WX    TMP DP  RH WIND       PRES   REMARKS
DENVER INTL AP CLOUDY    61  48  62 S18       30.19F
DMNS CITY PARK   N/A     62  49  63 S5G12     30.19S
AURORA         MOCLDY    60  48  65 S15G24    30.22F
FRONT RANGE AP NOT AVBL
ERIE MUNI ARPT NOT AVBL
BOULDER MUN AP CLOUDY    57  52  82 CALM      30.20S
CENTENNIAL     CLOUDY    58  48  69 S15       30.22F
BROOMFIELD     MOCLDY    57  54  88 NW7       30.22S
FORT COLLINS   CLOUDY    54  45  71 NW6       30.20S
LONGMONT       CLOUDY    58  51  76 CALM      30.20F
$$

COZ041-046-047-076>085-087-088-221300-
...PIKES PEAK/PALMER DIVIDE AND SOUTHERN FOOTHILLS...

CITY           SKY/WX    TMP DP  RH WIND       PRES   REMARKS
COLO. SPRINGS  CLOUDY    55  45  68 E6        30.31F
A. F. ACADEMY  CLOUDY    55  45  67 S9        30.31F
ELLICOTT       NOT AVBL
FALCON         CLOUDY    53  45  75 SE8       30.33F
FORT CARSON    CLOUDY    55  45  69 E5        30.28F
LIMON          MOCLDY    50  41  71 SE12      30.27F
MONUMENT HILL  CLOUDY    50  45  81 S10       30.29F
TRINIDAD       MOCLDY    61  54  77 SW17      30.29F
$$

COZ042>045-048>051-090-091-221300-
...NORTHEAST COLORADO...

CITY           SKY/WX    TMP DP  RH WIND       PRES   REMARKS
GREELEY ARPT   CLOUDY    57  43  58 SE5       30.18F
AKRON          MOCLDY    60  44  55 S17G24    30.23F
BURLINGTON     CLOUDY    56  41  57 S15G22    30.29S
WRAY           MOCLDY    57  41  55 E5        30.26F
STERLING       MOCLDY    63  45  51 S10       30.20S
HOLYOKE        MOCLDY    61  43  51 S8        30.24F
FORT MORGAN    MOCLDY    59  43  56 S13G18    30.20F
$$

COZ086-089-092>099-221300-
...SOUTHEAST COLORADO...

CITY           SKY/WX    TMP DP  RH WIND       PRES   REMARKS
PUEBLO         CLOUDY    58  49  72 N3        30.22F
LA JUNTA       PTCLDY    56  46  69 E8        30.24F
LAMAR          CLEAR     52  44  74 E5        30.25F
SPRINGFIELD      N/A     59  50  72 S12       30.30F
$$



USA.gov is the U.S. government's official web portal to all federal, state and local government web resources and services.